Weather History for KHKA - April, 2013

Change the Weather History Date:

Sunday, April 21, 2013

  Actual Average Record
Temperature  
Mean Temperature 56 °F -  
Max Temperature 68 °F 72 °F 91 °F (1987)
Min Temperature 45 °F 52 °F 37 °F (1943)
Degree Days  
Heating Degree Days 10    
Growing Degree Days 6 (Base 50)    
Moisture  
Dew Point 38 °F    
Average Humidity 56    
Maximum Humidity 82    
Minimum Humidity 30    
Precipitation  
Precipitation 0.00 in - - ()
Sea Level Pressure  
Sea Level Pressure 30.30 in    
Wind  
Wind Speed 7 mph (ENE)    
Max Wind Speed 12 mph    
Max Gust Speed 20 mph    
Visibility 10 miles    
Events      
Averages and records for this station are not official NWS values.
T = Trace of Precipitation, MM = Missing Value Source: NWS Daily Summary

Daily Weather History Graph

Daily Weather History Graph

Search for Another Location

Airport or City:

Trip Planner

Search our weather history database for the weather conditions in past years. The results will help you decide how hot, cold, wet, or windy it might be!

Date:

Astronomy

Apr. 21, 2013 Rise Set
Actual Time 6:18 AM CDT 7:38 PM CDT
Civil Twilight 5:51 AM CDT 8:05 PM CDT
Nautical Twilight 5:19 AM CDT 8:37 PM CDT
Astronomical Twilight 4:46 AM CDT 9:10 PM CDT
Moon 3:31 PM CDT (4/21) 3:32 AM CDT (4/21)
Length of Visible Light 14h 13m
Length of Day
13h 19m
Waxing Gibbous, 80% of the Moon is Illuminated
Apr 21
Waxing Gibbous
Apr 25
Full
May 2
Last Quarter
May 9
New
May 17
First Quarter

Hourly Weather History & Observations

Time (CDT) Temp. Windchill Dew Point Humidity Pressure Visibility Wind Dir Wind Speed Gust Speed Precip Events Conditions
12:53 AM 46.9 °F - 41.0 °F 80% 30.30 in 10.0 mi East 6.9 mph - N/A   Clear
1:53 AM 46.0 °F 42.5 °F 39.9 °F 79% 30.30 in 10.0 mi East 6.9 mph - N/A   Clear
2:53 AM 46.0 °F 43.9 °F 39.0 °F 76% 30.30 in 10.0 mi East 4.6 mph - N/A   Clear
3:53 AM 45.0 °F 41.8 °F 39.0 °F 80% 30.30 in 10.0 mi East 5.8 mph - N/A   Clear
4:53 AM 45.0 °F 41.2 °F 39.9 °F 82% 30.31 in 10.0 mi East 6.9 mph - N/A   Clear
5:53 AM 45.0 °F 41.8 °F 39.0 °F 80% 30.32 in 10.0 mi East 5.8 mph - N/A   Clear
6:53 AM 45.0 °F 41.2 °F 39.0 °F 80% 30.35 in 10.0 mi East 6.9 mph - N/A   Clear
7:53 AM 50.0 °F - 39.0 °F 66% 30.37 in 10.0 mi ENE 5.8 mph - N/A   Clear
8:53 AM 53.1 °F - 37.0 °F 55% 30.38 in 10.0 mi East 8.1 mph - N/A   Clear
9:53 AM 55.9 °F - 36.0 °F 47% 30.38 in 10.0 mi East 6.9 mph - N/A   Clear
10:53 AM 60.1 °F - 39.0 °F 46% 30.38 in 10.0 mi ENE 6.9 mph - N/A   Clear
11:53 AM 62.1 °F - 36.0 °F 38% 30.37 in 10.0 mi ENE 9.2 mph - N/A   Clear
12:53 PM 64.0 °F - 36.0 °F 35% 30.33 in 10.0 mi East 11.5 mph 17.3 mph N/A   Clear
1:26 PM 64.4 °F - 35.6 °F 34% 30.31 in 10.0 mi ENE 10.4 mph 18.4 mph N/A   Partly Cloudy
1:53 PM 66.0 °F - 37.0 °F 34% 30.30 in 10.0 mi ENE 9.2 mph 19.6 mph N/A   Clear
2:53 PM 66.0 °F - 35.1 °F 32% 30.28 in 10.0 mi ENE 11.5 mph 18.4 mph N/A   Clear
3:53 PM 66.0 °F - 35.1 °F 32% 30.24 in 10.0 mi NE 9.2 mph 18.4 mph N/A   Clear
4:53 PM 66.0 °F - 34.0 °F 30% 30.24 in 10.0 mi East 11.5 mph - N/A   Clear
5:53 PM 64.9 °F - 37.9 °F 37% 30.24 in 10.0 mi East 8.1 mph - N/A   Clear
6:53 PM 63.0 °F - 35.1 °F 35% 30.23 in 10.0 mi ENE 6.9 mph - N/A   Clear
7:53 PM 59.0 °F - 39.9 °F 49% 30.23 in 10.0 mi NE 6.9 mph - N/A   Clear
8:53 PM 55.0 °F - 41.0 °F 59% 30.24 in 10.0 mi NE 6.9 mph - N/A   Clear
9:53 PM 51.1 °F - 42.1 °F 71% 30.25 in 10.0 mi NE 5.8 mph - N/A   Clear
10:53 PM 51.1 °F - 39.9 °F 66% 30.24 in 10.0 mi ENE 4.6 mph - N/A   Clear
11:53 PM 50.0 °F - 39.0 °F 66% 30.24 in 10.0 mi ENE 4.6 mph - N/A   Clear